This demonstration page uses our WeatherBlox Daily Observations layout. Learn more.

Left ArrowRight Arrow

Hourly Observations for November 11, 2020

Temp ( °F °C ) Dew Point ( °F °C ) Humidity (%) Winds ( mph kmh ) Pressure ( in mb ) Visibility ( mi km ) Precip ( " mm )
12:03 am 00:03 Cloudy with Light Rain 67 19.4 65 18.3 93 93 SSW 8 13 29.84 1010 5 8 0.00 0.00
12:53 am 00:53 Cloudy with Light Rain 67 19.4 65 18.3 93 93 VRB 6 9 29.83 1010 6 10 0.04 1.02
1:13 am 01:13 Cloudy with Light Rain 67 19.4 65 18.3 93 93 WNW 7 11 29.84 1010 7 11 0.01 0.25
1:18 am 01:18 Cloudy with Heavy Rain 67 19.4 65 18.3 93 93 W 8 13 29.84 1010 3 4 0.04 1.02
1:22 am 01:22 Cloudy with Heavy Rain 67 19.4 65 18.3 93 93 W 6 9 29.84 1010 2 3 0.06 1.52
1:27 am 01:27 Cloudy with Rain 66 18.9 66 18.9 100 100 W 6 9 29.84 1010 2 3 0.07 1.78
1:39 am 01:39 Cloudy with Light Rain 67 19.4 66 18.9 97 97 SSW 5 7 29.83 1010 2 3 0.09 2.29
1:53 am 01:53 Cloudy 67 19.4 65 18.3 93 93 Calm 29.83 1010 10 16 0.10 2.54
2:11 am 02:11 Cloudy 67 19.4 65 18.3 93 93 VRB 3 6 29.83 1010 10 16 0.00 0.00
2:53 am 02:53 Cloudy with Rain 65 18.3 63 17.2 93 93 undefined N/A 29.85 1011 7 11 0.00 0.00
3:05 am 03:05 Cloudy with Light Rain 61 16.1 61 16.1 100 100 NNW 18 30 29.88 1012 7 11 0.01 0.25
3:19 am 03:19 Cloudy 59 15 N/A N/A WNW 12 19 29.90 1012 10 16 0.01 0.25
3:29 am 03:29 Cloudy 57 14 N/A N/A WNW 12 19 29.90 1013 10 16 0.01 0.25
3:53 am 03:53 Cloudy 57 14 N/A N/A W 5 7 29.89 1012 10 16 0.01 0.25
4:53 am 04:53 Cloudy 55 12.8 54 12.2 96 96 W 5 7 29.91 1013 10 16 0.00 0.00
5:03 am 05:03 Cloudy 55 12.8 52 11.1 90 90 Calm 29.92 1013 10 16 0.00 0.00
5:53 am 05:53 Cloudy 55 12.8 53 11.7 93 93 Calm 29.92 1013 10 16 0.00 0.00
6:53 am 06:53 Cloudy 56 13.3 50 10 81 81 NW 5 7 29.93 1014 10 16 0.00 0.00
7:53 am 07:53 Cloudy 56 13.3 50 10 81 81 WNW 10 17 29.96 1015 10 16 0.00 0.00
8:53 am 08:53 Cloudy 56 13.3 50 10 81 81 NNW 7 11 29.98 1015 10 16 0.00 0.00
9:53 am 09:53 Cloudy 55 12.8 49 9.4 80 80 WNW 12 19 30.00 1016 10 16 0.00 0.00
10:53 am 10:53 Cloudy 54 12.2 48 8.9 80 80 NW 10 17 30.01 1016 10 16 0.00 0.00
11:53 am 11:53 Mostly Cloudy 55 12.8 45 7.2 69 69 NW 9 15 30.02 1017 10 16 0.00 0.00
12:04 pm 12:04 Partly Cloudy 55 12.8 43 6.1 64 64 NNW 7 11 30.02 1017 10 16 0.00 0.00
12:53 pm 12:53 Cloudy 55 12.8 43 6.1 64 64 NW 9 15 30.02 1017 10 16 0.00 0.00
1:53 pm 13:53 Cloudy 55 12.8 40 4.4 57 57 NNW 10 17 30.02 1017 10 16 0.00 0.00
2:53 pm 14:53 Mostly Cloudy 55 12.8 40 4.4 57 57 NW 12 19 30.02 1017 10 16 0.00 0.00
3:53 pm 15:53 Sunny 55 12.8 38 3.3 53 53 NNW 10 17 30.04 1017 10 16 0.00 0.00
4:53 pm 16:53 Sunny 52 11.1 38 3.3 59 59 NW 9 15 30.06 1018 10 16 0.00 0.00
5:53 pm 17:53 Clear 46 7.8 37 2.8 71 71 WNW 3 6 30.07 1018 10 16 0.00 0.00
6:53 pm 18:53 Clear 44 6.7 36 2.2 73 73 NW 3 6 30.10 1019 10 16 0.00 0.00
7:53 pm 19:53 Clear 44 6.7 37 2.8 76 76 NNW 8 13 30.12 1020 10 16 0.00 0.00
8:53 pm 20:53 Clear 42 5.6 35 1.7 76 76 N 10 17 30.14 1021 10 16 0.00 0.00
9:53 pm 21:53 Clear 39 3.9 34 1.1 82 82 N 7 11 30.15 1021 10 16 0.00 0.00
10:53 pm 22:53 Clear 37 2.8 33 0.6 86 86 NNW 3 6 30.16 1021 10 16 0.00 0.00
11:53 pm 23:53 Clear 36 2.2 32 0 86 86 N 3 6 30.15 1021 10 16 0.00 0.00

Powered by AerisWeather